When you browse on this site, cookies collect data to enhance your experience and personalize the content and advertising you see.
Visit our Privacy Policy to learn more. By continuing to use the site, you agree to this use of cookies and data.
  • In Netherlands
  • List of Countries
  • For 7 days
  • Water Temperature
  • Weather Map
  • Weather Widgets
  • user-avatar
    Login

    Hourly Weather Lubango

    Today, 20 February, Thursday

    Time Temperature Precipitation Wind Pressure Humidity
    00:00 +16°C° 0.1 mm 1 mps 608 mmHg 90%
    01:00 +16°C° 0 mm 1 mps 608 mmHg 90%
    02:00 +16°C° 0 mm 1 mps 607 mmHg 90%
    03:00 +16°C° 0 mm 1 mps 607 mmHg 91%
    04:00 +16°C° 0 mm 1 mps 607 mmHg 91%
    05:00 +16°C° 0 mm 1 mps 607 mmHg 91%
    06:00 +16°C° 0 mm 1 mps 608 mmHg 91%
    07:00 +16°C° 0 mm 1 mps 608 mmHg 94%
    08:00 +19°C° 0.1 mm 1 mps 609 mmHg 86%
    09:00 +18°C° 0.1 mm 0 mps 610 mmHg 79%
    10:00 +20°C° 0.1 mm 0 mps 611 mmHg 71%
    11:00 +23°C° 0.2 mm 1 mps 610 mmHg 68%
    12:00 +23°C° 0.2 mm 1 mps 610 mmHg 65%
    13:00 +25°C° 0 mm 1 mps 610 mmHg 59%
    14:00 +24°C° 1.1 mm 1 mps 609 mmHg 64%
    15:00 +23°C° 1.1 mm 1 mps 608 mmHg 70%
    16:00 +22°C° 1.1 mm 1 mps 607 mmHg 76%
    17:00 +21°C° 0.5 mm 1 mps 607 mmHg 79%
    18:00 +20°C° 0.5 mm 1 mps 607 mmHg 82%
    19:00 +19°C° 0.5 mm 1 mps 606 mmHg 85%
    20:00 +19°C° 0 mm 1 mps 607 mmHg 85%
    21:00 +18°C° 0 mm 1 mps 607 mmHg 84%
    22:00 +18°C° 0 mm 1 mps 607 mmHg 84%
    23:00 +16°C° 0 mm 1 mps 607 mmHg 83%

    Tomorrow, 21 February, Friday

    Time Temperature Precipitation Wind Pressure Humidity
    00:00 +16°C° 0 mm 1 mps 607 mmHg 82%
    01:00 +16°C° 0 mm 1 mps 606 mmHg 80%
    02:00 +16°C° 0 mm 1 mps 606 mmHg 79%
    03:00 +16°C° 0 mm 1 mps 606 mmHg 78%
    04:00 +15°C° 0 mm 0 mps 606 mmHg 77%
    05:00 +16°C° 0 mm 0 mps 607 mmHg 76%
    06:00 +16°C° 0 mm 0 mps 607 mmHg 75%
    07:00 +18°C° 0 mm 1 mps 608 mmHg 75%
    14:00 +26°C° 0.8 mm 2 mps 609 mmHg 56%
    15:00 +25°C° 0.8 mm 2 mps 608 mmHg 61%
    16:00 +24°C° 0.8 mm 3 mps 607 mmHg 66%
    17:00 +21°C° 0.2 mm 2 mps 607 mmHg 68%
    18:00 +20°C° 0.2 mm 2 mps 607 mmHg 70%
    19:00 +18°C° 0.2 mm 2 mps 606 mmHg 71%
    20:00 +19°C° 0 mm 1 mps 607 mmHg 70%
    21:00 +18°C° 0 mm 1 mps 607 mmHg 68%
    22:00 +18°C° 0 mm 1 mps 607 mmHg 66%
    23:00 +18°C° 0 mm 1 mps 607 mmHg 66%

    Day after tomorrow, 22 February, Saturday

    Time Temperature Precipitation Wind Pressure Humidity
    00:00 +18°C° 0 mm 1 mps 607 mmHg 66%
    01:00 +16°C° 0 mm 1 mps 607 mmHg 65%
    02:00 +16°C° 0 mm 1 mps 607 mmHg 63%
    03:00 +16°C° 0 mm 1 mps 606 mmHg 62%
    04:00 +16°C° 0 mm 1 mps 606 mmHg 60%
    05:00 +16°C° 0 mm 1 mps 607 mmHg 60%
    06:00 +18°C° 0 mm 1 mps 607 mmHg 61%
    07:00 +18°C° 0 mm 1 mps 608 mmHg 62%
    08:00 +20°C° 0 mm 1 mps 609 mmHg 55%
    09:00 +23°C° 0 mm 1 mps 610 mmHg 49%
    10:00 +25°C° 0 mm 1 mps 611 mmHg 42%
    11:00 +26°C° 0 mm 1 mps 610 mmHg 41%
    12:00 +27°C° 0 mm 1 mps 610 mmHg 40%
    13:00 +27°C° 0 mm 2 mps 610 mmHg 39%
    14:00 +27°C° 0 mm 2 mps 609 mmHg 40%
    15:00 +27°C° 0 mm 2 mps 608 mmHg 42%
    16:00 +26°C° 0 mm 2 mps 608 mmHg 43%
    17:00 +24°C° 0 mm 2 mps 607 mmHg 49%
    18:00 +21°C° 0 mm 2 mps 607 mmHg 54%
    19:00 +20°C° 0 mm 1 mps 606 mmHg 60%
    20:00 +19°C° 0 mm 1 mps 607 mmHg 59%
    21:00 +19°C° 0 mm 1 mps 607 mmHg 58%
    22:00 +18°C° 0 mm 1 mps 607 mmHg 56%
    23:00 +18°C° 0 mm 1 mps 607 mmHg 56%

    23 February, Sunday

    Time Temperature Precipitation Wind Pressure Humidity
    00:00 +18°C° 0 mm 1 mps 607 mmHg 56%
    01:00 +18°C° 0 mm 1 mps 607 mmHg 56%
    02:00 +16°C° 0 mm 1 mps 607 mmHg 52%
    03:00 +16°C° 0 mm 1 mps 606 mmHg 48%
    04:00 +16°C° 0 mm 1 mps 606 mmHg 43%
    05:00 +16°C° 0 mm 1 mps 607 mmHg 45%
    06:00 +16°C° 0 mm 1 mps 607 mmHg 47%
    07:00 +16°C° 0 mm 1 mps 607 mmHg 48%
    08:00 +20°C° 0 mm 1 mps 608 mmHg 45%
    09:00 +22°C° 0 mm 1 mps 609 mmHg 42%
    10:00 +24°C° 0 mm 1 mps 610 mmHg 38%
    11:00 +25°C° 0 mm 2 mps 610 mmHg 39%
    12:00 +25°C° 0 mm 2 mps 610 mmHg 39%
    13:00 +26°C° 0 mm 2 mps 610 mmHg 40%
    14:00 +26°C° 0 mm 2 mps 609 mmHg 42%
    15:00 +25°C° 0 mm 3 mps 608 mmHg 43%
    16:00 +24°C° 0 mm 3 mps 608 mmHg 45%
    17:00 +21°C° 0 mm 2 mps 608 mmHg 54%
    18:00 +19°C° 0 mm 2 mps 607 mmHg 63%
    19:00 +18°C° 0 mm 1 mps 607 mmHg 72%
    20:00 +18°C° 0 mm 1 mps 607 mmHg 74%
    21:00 +16°C° 0 mm 2 mps 608 mmHg 77%
    22:00 +16°C° 0 mm 2 mps 608 mmHg 80%
    23:00 +15°C° 0 mm 2 mps 608 mmHg 82%

    24 February, Monday

    Time Temperature Precipitation Wind Pressure Humidity
    00:00 +14°C° 0 mm 2 mps 607 mmHg 84%
    01:00 +14°C° 0 mm 2 mps 607 mmHg 86%
    02:00 +14°C° 0 mm 1 mps 607 mmHg 84%
    03:00 +14°C° 0 mm 1 mps 607 mmHg 82%
    04:00 +13°C° 0 mm 1 mps 606 mmHg 81%
    05:00 +14°C° 0 mm 1 mps 607 mmHg 78%
    06:00 +14°C° 0 mm 1 mps 607 mmHg 75%
    07:00 +15°C° 0 mm 1 mps 608 mmHg 73%
    08:00 +18°C° 0 mm 1 mps 609 mmHg 66%
    09:00 +20°C° 0 mm 1 mps 610 mmHg 59%
    10:00 +23°C° 0 mm 1 mps 611 mmHg 51%
    11:00 +23°C° 0 mm 2 mps 610 mmHg 51%
    12:00 +24°C° 0 mm 2 mps 610 mmHg 50%
    13:00 +25°C° 0 mm 2 mps 610 mmHg 49%
    14:00 +24°C° 0.1 mm 2 mps 609 mmHg 51%
    15:00 +24°C° 0.1 mm 3 mps 609 mmHg 54%
    16:00 +22°C° 0.1 mm 3 mps 608 mmHg 56%
    17:00 +21°C° 0 mm 2 mps 608 mmHg 62%
    18:00 +19°C° 0 mm 2 mps 607 mmHg 69%
    19:00 +17°C° 0 mm 2 mps 607 mmHg 75%
    20:00 +18°C° 0 mm 1 mps 607 mmHg 76%
    21:00 +16°C° 0 mm 1 mps 607 mmHg 76%
    22:00 +16°C° 0 mm 1 mps 608 mmHg 77%
    23:00 +15°C° 0 mm 1 mps 607 mmHg 77%

    25 February, Tuesday

    Time Temperature Precipitation Wind Pressure Humidity
    00:00 +15°C° 0 mm 1 mps 607 mmHg 77%
    01:00 +15°C° 0 mm 1 mps 607 mmHg 77%
    02:00 +15°C° 0 mm 1 mps 606 mmHg 73%
    03:00 +14°C° 0 mm 1 mps 606 mmHg 68%
    04:00 +14°C° 0 mm 1 mps 606 mmHg 63%
    05:00 +14°C° 0 mm 1 mps 606 mmHg 61%
    06:00 +15°C° 0 mm 1 mps 606 mmHg 59%
    07:00 +15°C° 0 mm 1 mps 607 mmHg 57%
    08:00 +18°C° 0 mm 1 mps 608 mmHg 52%
    09:00 +20°C° 0 mm 2 mps 609 mmHg 46%
    10:00 +23°C° 0 mm 2 mps 610 mmHg 40%
    11:00 +24°C° 0 mm 2 mps 610 mmHg 40%
    12:00 +25°C° 0 mm 2 mps 610 mmHg 39%
    13:00 +25°C° 0 mm 2 mps 610 mmHg 38%
    14:00 +25°C° 0 mm 3 mps 609 mmHg 40%
    15:00 +25°C° 0 mm 3 mps 608 mmHg 42%
    16:00 +24°C° 0 mm 3 mps 608 mmHg 44%
    17:00 +21°C° 0 mm 3 mps 607 mmHg 55%
    18:00 +19°C° 0 mm 2 mps 606 mmHg 66%
    19:00 +18°C° 0 mm 1 mps 606 mmHg 76%
    20:00 +16°C° 0 mm 1 mps 606 mmHg 78%
    21:00 +16°C° 0 mm 1 mps 606 mmHg 81%
    22:00 +15°C° 0 mm 1 mps 607 mmHg 83%
    23:00 +15°C° 0 mm 1 mps 607 mmHg 82%
    Show more